GW0876 Weather Reports


time (UTC)temp
F
wind
direction
speed
knots
gust
knots
rain 1hr
in
rain 24hr
in
rain mn
in
humidity
%
barometer
mb
20260506120734 80 282 1.7 7.0 0.00 0.00 0.00 38 1007.0
20260506115732 79 256 0.9 12.2 0.00 0.00 0.00 39 1007.3
20260506115654 78 305 1.7 8.7 0.00 0.00 0.00 39 1007.4
20260506114220 79 280 3.5 8.7 0.00 0.00 0.00 38 1007.4
20260506112732 79 303 1.7 9.6 0.00 0.00 0.00 39 1007.3
20260506111732 79 280 1.7 9.6 0.00 0.00 0.00 38 1007.4
20260506110733 78 290 2.6 7.8 0.00 0.00 0.00 39 1007.3
20260506105732 81 128 1.7 7.0 0.00 0.00 0.00 38 1007.4
20260506105133 78 304 0.0 7.0 0.00 0.00 0.00 37 1007.0
20260506104916 79 253 1.7 7.0 0.00 0.00 0.00 39 1007.2
20260506102732 79 285 3.5 9.6 0.00 0.00 0.00 37 1007.2
20260506101732 78 302 0.9 7.8 0.00 0.00 0.00 36 1007.3
20260506100734 76 287 3.5 9.6 0.00 0.00 0.00 37 1007.2
20260506100212 78 281 7.8 7.8 0.00 0.00 0.00 36 1007.2
20260506095215 76 276 1.7 8.7 0.00 0.00 0.00 38 1007.1
20260506093734 78 326 1.7 7.0 0.00 0.00 0.00 38 1006.8
20260506092732 77 286 6.1 9.6 0.00 0.00 0.00 38 1007.2
20260506091733 76 260 1.7 11.3 0.00 0.00 0.00 37 1007.2
20260506090734 76 276 5.2 6.1 0.00 0.00 0.00 37 1007.1
20260506085733 74 149 1.7 7.8 0.00 0.00 0.00 38 1007.1
20260506084733 74 81 1.7 8.7 0.00 0.00 0.00 39 1007.0
20260506083733 74 320 2.6 7.8 0.00 0.00 0.00 40 1007.0
20260506082733 73 276 3.5 8.7 0.00 0.00 0.00 40 1007.1
20260506081732 73 89 1.7 7.0 0.00 0.00 0.00 41 1006.9
20260506081221 72 292 1.7 7.0 0.00 0.00 0.00 42 1007.0
20260506072732 71 327 0.9 8.7 0.00 0.00 0.00 43 1006.8
20260506071733 71 340 1.7 7.8 0.00 0.00 0.00 43 1007.0
20260506071213 71 312 1.7 9.6 0.00 0.00 0.00 44 1006.9
20260506061733 67 292 4.3 8.7 0.00 0.00 0.00 49 1006.7
20260506060734 67 265 2.6 5.2 0.00 0.00 0.00 50 1006.4
20260506050747 60 88 0.9 3.5 0.00 0.00 0.00 56 1006.6
20260506044732 60 91 2.6 3.5 0.00 0.00 0.00 54 1006.7
20260506043733 60 217 0.0 3.5 0.00 0.00 0.00 53 1006.9
20260506042732 60 82 1.7 3.5 0.00 0.00 0.00 52 1006.9
20260506041732 60 125 1.7 3.5 0.00 0.00 0.00 51 1006.8
20260506041214 60 89 1.7 2.6 0.00 0.00 0.00 51 1007.1
20260506035732 60 125 1.7 4.3 0.00 0.00 0.00 51 1006.8
20260506034732 60 39 2.6 4.3 0.00 0.00 0.00 51 1007.0
20260506033734 60 81 0.9 3.5 0.00 0.00 0.00 50 1006.9
20260506032732 59 95 0.9 4.3 0.00 0.00 0.00 51 1007.0
20260506031732 59 51 1.7 3.5 0.00 0.00 0.00 51 1007.0
20260506030734 59 332 2.6 3.5 0.00 0.00 0.00 51 1007.0
20260506025733 59 37 0.9 3.5 0.00 0.00 0.00 50 1007.2
20260506024732 59 149 1.7 3.5 0.00 0.00 0.00 50 1006.9
20260506024217 59 64 0.0 3.5 0.00 0.00 0.00 50 1007.0
20260506022732 59 27 2.6 4.3 0.00 0.00 0.00 49 1007.3
20260506021732 59 91 1.7 3.5 0.00 0.00 0.00 50 1007.1
20260506020733 59 177 1.7 3.5 0.00 0.00 0.00 50 1007.1
20260506015732 59 332 0.9 3.5 0.00 0.00 0.00 51 1007.2
20260506015236 59 91 0.0 3.5 0.00 0.00 0.00 50 1007.3
20260506013733 59 74 0.9 5.2 0.00 0.00 0.00 50 1007.3
20260506012732 58 347 1.7 3.5 0.00 0.00 0.00 53 1007.4
20260506012643 57 272 0.0 2.6 0.00 0.00 0.00 57 1007.2
20260506010734 57 107 0.0 1.7 0.00 0.00 0.00 57 1007.3
20260506005732 57 129 0.0 0.9 0.00 0.00 0.00 59 1007.4
20260506005214 57 124 0.0 1.7 0.00 0.00 0.00 58 1007.4
20260506003733 58 103 0.0 0.0 0.00 0.00 0.00 58 1007.4
20260506002733 58 124 0.0 0.0 0.00 0.00 0.00 58 1007.3
20260506001732 58 304 0.0 0.0 0.00 0.00 0.00 57 1007.4
20260506000733 58 62 0.0 0.0 0.00 0.00 0.00 56 1007.3
20260505235732 59 62 0.0 0.0 0.00 0.00 0.00 54 1007.4
20260505234732 60 315 0.0 0.0 0.00 0.00 0.00 52 1007.4
20260505233733 60 62 0.0 0.0 0.00 0.00 0.00 50 1007.5
20260505232733 60 129 0.0 0.0 0.00 0.00 0.00 49 1007.6
20260505231732 61 293 0.0 0.0 0.00 0.00 0.00 50 1007.4
20260505230746 62 230 0.0 0.0 0.00 0.00 0.00 48 1007.6
20260505230206 62 309 0.0 0.9 0.00 0.00 0.00 46 1007.7
20260505224732 63 22 0.0 1.7 0.00 0.00 0.00 46 1007.7
20260505224645 64 50 0.0 3.5 0.00 0.00 0.00 44 1007.9
20260505222732 64 94 0.0 2.6 0.00 0.00 0.00 44 1007.8
20260505221732 64 44 0.0 1.7 0.00 0.00 0.00 44 1007.8
20260505220734 65 311 0.0 1.7 0.00 0.00 0.00 43 1007.8
20260505215733 65 44 0.0 3.5 0.00 0.00 0.00 43 1008.0
20260505214732 65 269 1.7 3.5 0.00 0.00 0.00 43 1008.1
20260505213734 65 277 0.0 3.5 0.00 0.00 0.00 43 1008.1
20260505212731 65 75 0.9 5.2 0.00 0.00 0.00 43 1008.0
20260505211733 65 268 0.0 1.7 0.00 0.00 0.00 43 1008.1
20260505211236 65 103 0.0 2.6 0.00 0.00 0.00 43 1008.1
20260505205732 66 273 0.9 2.6 0.00 0.00 0.00 43 1008.1
20260505205218 66 277 1.7 2.6 0.00 0.00 0.00 43 1007.9
20260505203734 66 13 0.0 1.7 0.00 0.00 0.00 43 1008.1
20260505203217 66 269 0.0 1.7 0.00 0.00 0.00 43 1008.1
20260505201733 67 91 1.7 1.7 0.00 0.00 0.00 42 1008.0
20260505200733 67 289 0.9 3.5 0.00 0.00 0.00 42 1008.2
20260505195732 67 298 0.9 2.6 0.00 0.00 0.00 41 1008.0
20260505194733 68 278 1.7 3.5 0.00 0.00 0.00 41 1008.2
20260505193733 68 350 0.0 3.5 0.00 0.00 0.00 40 1007.8
20260505192731 68 302 2.6 3.5 0.00 0.00 0.00 40 1008.0
20260505192215 69 111 2.6 2.6 0.00 0.00 0.00 39 1007.8
20260505190733 69 280 2.6 3.5 0.00 0.00 0.00 38 1007.7
20260505185732 70 353 0.0 3.5 0.00 0.00 0.00 37 1007.6
20260505184732 70 159 1.7 3.5 0.00 0.00 0.00 37 1007.7
20260505183733 71 44 0.0 3.5 0.00 0.00 0.00 36 1007.6
20260505182732 71 106 0.0 3.5 0.00 0.00 0.00 36 1007.6
20260505181732 71 348 1.7 3.5 0.00 0.00 0.00 36 1007.5
20260505180734 72 97 0.9 3.5 0.00 0.00 0.00 36 1007.6
20260505175732 73 6 0.9 3.5 0.00 0.00 0.00 35 1007.3
20260505174733 73 242 0.9 5.2 0.00 0.00 0.00 35 1007.3
20260505173734 74 84 1.7 4.3 0.00 0.00 0.00 34 1007.3
20260505172732 74 281 0.0 3.5 0.00 0.00 0.00 33 1007.4
20260505172223 75 130 1.7 3.5 0.00 0.00 0.00 33 1007.3
20260505170733 76 269 0.0 3.5 0.00 0.00 0.00 31 1007.4
20260505170647 76 279 1.7 4.3 0.00 0.00 0.00 30 1007.3
20260505164732 77 275 4.3 7.0 0.00 0.00 0.00 29 1007.3
20260505163735 77 289 2.6 7.0 0.00 0.00 0.00 30 1007.4
20260505163216 78 98 1.7 5.2 0.00 0.00 0.00 30 1007.5
20260505161731 78 275 3.5 3.5 0.00 0.00 0.00 29 1007.4
20260505161702 78 85 1.7 5.2 0.00 0.00 0.00 28 1007.5
20260505153234 80 328 1.7 5.2 0.00 0.00 0.00 25 1007.5
20260505151731 81 118 2.6 5.2 0.00 0.00 0.00 25 1007.5
20260505151217 82 298 0.9 7.8 0.00 0.00 0.00 24 1007.6
20260505124732 82 71 1.7 6.1 0.00 0.00 0.00 25 1009.3
20260505123734 81 292 3.5 5.2 0.00 0.00 0.00 26 1009.3
20260505122733 81 277 1.7 5.2 0.00 0.00 0.00 25 1009.5
20260505121733 81 26 1.7 7.8 0.00 0.00 0.00 25 1009.4